Simultaneous Nadir Overpasses (SNOs) Predictions

Prediction of SNOs between GOES-17 and LANDSAT-8 Satellite Orbit:

Table of predicted SNOs for the next 14.0 days since TLE Epoch: 2/4/2023
Index Date Time (GOES-17) GOES-17 Lat,Lon LANDSAT-8 Lat,Lon Distance(km) Time Diff (sec)
1 02/05/2023 17:28:54 0.00,-108.63 0.15,-109.40 87.04 80
2 02/07/2023 17:16:34 0.01,-106.30 0.01,-106.34 4.42 80
3 02/09/2023 17:06:54 0.01,-103.97 -0.15,-103.28 78.34 80
4 02/11/2023 16:54:33 0.01,-101.64 -0.27,-100.21 161.22 80
5 02/12/2023 05:13:15 -0.01,-101.02 -0.94,-105.38 496.35 80
6 02/13/2023 16:42:13 0.01, -99.30 -0.46, -97.16 243.80 80
7 02/14/2023 05:00:54 -0.01, -98.68 -0.81,-102.32 413.83 80
8 02/15/2023 16:29:52 0.01, -96.96 -0.60, -94.10 326.05 80
9 02/16/2023 04:48:34 -0.01, -96.34 -0.60, -99.27 331.58 80
10 02/17/2023 16:17:31 0.01, -94.63 -0.76, -91.04 408.34 80
